Home > Time Zones > World Clock > Weather > Egypt > Cairo > Past weeks

Flag for Egypt Weather past 2 weeks in Cairo, Egypt

Now
68 °F

Sunny.


Feels Like: 68 °F
Forecast: 49 / 68 °F
Wind: 14 mph from Southwest

Location: Cairo Airport

Current Time: Dec 28, 2014 at 3:12:43 PM

Latest Report: Dec 28, 2014 at 2:30 PM


Visibility: 10 mi

Pressure: 30.12 "Hg

Humidity: 33%

Dew point: 37 °F

Location of CairoLocation

Historic Weather in Cairo — Graph

°F

Cairo temperature yesterday

Maximum temperature yesterday: 66 °F (at 1:00 PM)
Minimum temperature yesterday: 52 °F (at 7:30 AM)
Average temperature yesterday: 60 °F

Past Weeks' High & Low Weather Summary

 TemperatureHumidityPressure
High72 °F (Dec 17, 2:30 PM)100% (Dec 15, 4:30 AM)30.30 "Hg (Dec 15, 4:30 AM)
Low48 °F (Dec 25, 7:00 AM)29% (Dec 17, 2:30 PM)29.98 "Hg (Dec 27, 3:00 PM)
Average61 °F64%30.14 "Hg
* Reported Dec 13 2:00 PM — Dec 28 2:00 PM, Cairo, Weather by CustomWeather, © 2014

Note: Actual official high and low records may vary slightly from our data, if they occured in-between our weather recording intervals... More about our weather records

Advertising

Cairo weather history for previous 24 hours

 ConditionsComfort  
Time TempWeatherWind HumidityBarometerVisibility
2:00 PM
Dec 28
68 °FSunny.13 mph33%30.12 "Hg10 mi
1:30 PM66 °FSunny.9 mph35%30.12 "Hg10 mi
1:00 PM64 °FSunny.10 mph37%30.12 "Hg10 mi
12:30 PM64 °FSunny.12 mph37%30.15 "Hg10 mi
12:00 PM64 °FSunny.12 mph37%30.15 "Hg10 mi
11:30 AM63 °FSunny.12 mph37%30.15 "Hg10 mi
11:00 AM61 °FSunny.9 mph39%30.18 "Hg10 mi
10:30 AM61 °FSunny.9 mph39%30.18 "Hg10 mi
10:00 AM61 °FClear.9 mph39%30.18 "Hg4 mi
9:30 AM59 °FClear.8 mph42%30.18 "Hg4 mi
9:00 AM57 °FClear.9 mph44%30.15 "Hg4 mi
8:30 AM55 °FScattered clouds.7 mph47%30.15 "Hg4 mi
8:00 AM55 °FScattered clouds.7 mph47%30.15 "Hg4 mi
7:30 AM54 °FScattered clouds.7 mph54%30.12 "Hg4 mi
7:00 AM54 °FScattered clouds.8 mph54%30.12 "Hg4 mi
6:30 AM54 °FPassing clouds.8 mph54%30.12 "Hg4 mi
5:30 AM54 °FPassing clouds.5 mph54%30.09 "HgN/A
5:00 AM54 °FPassing clouds.5 mph54%30.09 "HgN/A
4:30 AM54 °FPassing clouds.6 mph51%30.09 "HgN/A
4:00 AM55 °FPassing clouds.5 mph51%30.09 "HgN/A
3:30 AM55 °FPassing clouds.5 mph51%30.09 "HgN/A
3:00 AM55 °FPassing clouds.5 mph55%30.09 "HgN/A
2:30 AM55 °FPassing clouds.6 mph55%30.09 "HgN/A
2:00 AM55 °FClear.6 mph55%30.09 "Hg10 mi
1:30 AM55 °FClear.5 mph59%30.07 "Hg10 mi
1:00 AM54 °FClear.6 mph67%30.07 "Hg10 mi
12:30 AM55 °FClear.6 mph67%30.07 "Hg10 mi
12:00 AM57 °FClear.5 mph63%30.07 "Hg10 mi
11:30 PM
Dec 27
57 °FClear.5 mph59%30.07 "Hg10 mi
11:00 PM57 °FClear.5 mph59%30.07 "Hg10 mi
10:30 PM59 °FClear.No wind59%30.07 "Hg10 mi
10:00 PM59 °FClear.No wind59%30.07 "Hg10 mi
9:30 PM61 °FPassing clouds.No wind55%30.07 "HgN/A
9:00 PM61 °FPassing clouds.No wind55%30.07 "HgN/A
8:30 PM61 °FPassing clouds.5 mph55%30.04 "HgN/A
8:00 PM61 °FPassing clouds.5 mph55%30.04 "HgN/A
7:30 PM61 °FPassing clouds.6 mph59%30.04 "HgN/A
7:00 PM61 °FPassing clouds.6 mph59%30.04 "HgN/A
6:30 PM63 °FPassing clouds.3 mph56%30.01 "HgN/A
6:00 PM63 °FPassing clouds.3 mph56%30.01 "HgN/A
5:30 PM64 °FPassing clouds.5 mph49%30.01 "HgN/A
4:30 PM66 °FScattered clouds.6 mph46%29.98 "HgN/A
4:00 PM66 °FScattered clouds.7 mph43%29.98 "HgN/A
3:30 PM66 °FScattered clouds.6 mph43%29.98 "HgN/A
3:00 PM66 °FScattered clouds.No wind46%29.98 "HgN/A
Weather by CustomWeather, © 2014

See weather overviewHow to use our weather pages